EW1109 Weather Reports


Display with metric or nautical units.
time (UTC)temp
F
wind
direction
speed
MPH
gust
MPH
rain 1hr
in
rain 24hr
in
rain mn
in
humidity
%
barometer
mb
20260507163007 41 169 3.0 9.0 0.00 0.00 0.00 11 1012.9
20260507161549 42 212 2.0 7.0 0.00 0.00 0.00 1 1013.1
20260507160048 41 251 2.0 7.0 0.00 0.00 0.00 100 1013.2
20260507154540 41 198 1.0 7.0 0.00 0.00 0.00 100 1013.3
20260507153036 40 214 2.0 7.0 0.00 0.00 0.00 100 1013.5
20260507151531 40 211 2.0 7.0 0.00 0.00 0.00 100 1013.4
20260507150026 40 247 2.0 7.0 0.00 0.00 0.00 100 1013.3
20260507144523 40 217 0.0 5.0 0.00 0.00 0.00 100 1013.2
20260507143032 40 263 0.0 6.0 0.00 0.00 0.00 100 1013.3
20260507141501 40 253 0.0 6.0 0.00 0.00 0.00 100 1013.2
20260507140056 40 251 0.0 5.0 0.00 0.00 0.00 100 1013.2
20260507134555 40 215 0.0 7.0 0.00 0.00 0.00 100 1013.3
20260507133049 41 236 0.0 6.0 0.00 0.00 0.00 100 1013.2
20260507131552 41 213 0.0 5.0 0.00 0.00 0.00 100 1013.1
20260507130043 41 215 0.0 5.0 0.00 0.00 0.00 100 1013.1
20260507124537 40 199 0.0 3.0 0.00 0.00 0.00 100 1013.1
20260507123031 38 297 0.0 0.0 0.00 0.00 0.00 100 1013.0
20260507121509 37 298 0.0 0.0 0.00 0.00 0.00 100 1013.0
20260507120005 36 298 0.0 0.0 0.00 0.00 0.00 100 1012.9
20260507114544 35 298 0.0 0.0 0.00 0.00 0.00 100 1012.8
20260507113039 34 298 0.0 0.0 0.00 0.00 0.00 100 1012.6
20260507111523 33 298 0.0 0.0 0.00 0.00 0.00 100 1012.5
20260507110021 32 298 0.0 0.0 0.00 0.00 0.00 100 1012.5
20260507104514 32 298 0.0 0.0 0.00 0.00 0.00 100 1012.5
20260507103011 31 298 0.0 0.0 0.00 0.00 0.00 100 1012.4
20260507101507 31 298 0.0 0.0 0.00 0.00 0.00 100 1012.5
20260507100001 31 298 0.0 0.0 0.00 0.00 0.00 100 1012.6
20260507094557 30 298 0.0 0.0 0.00 0.00 0.00 100 1012.6
20260507093053 30 298 0.0 0.0 0.00 0.00 0.00 100 1012.7
20260507091535 30 298 0.0 0.0 0.00 0.00 0.00 100 1012.8
20260507090026 31 298 0.0 0.0 0.00 0.00 0.00 100 1012.9
20260507084503 31 298 0.0 0.0 0.00 0.00 0.00 100 1013.0
20260507083059 31 298 0.0 0.0 0.00 0.00 0.00 100 1013.0
20260507081536 31 298 0.0 0.0 0.00 0.00 0.00 100 1013.2
20260507080032 32 298 0.0 0.0 0.00 0.00 0.00 100 1013.2
20260507074516 32 298 0.0 0.0 0.00 0.00 0.00 100 1013.2
20260507073013 33 298 0.0 0.0 0.00 0.00 0.00 100 1013.3
20260507071506 33 298 0.0 0.0 0.00 0.00 0.00 100 1013.3
20260507070004 33 298 0.0 0.0 0.00 0.00 0.00 100 1013.5
20260507064634 33 298 0.0 0.0 0.00 0.00 0.00 100 1013.7
20260507063105 33 298 0.0 0.0 0.00 0.00 0.00 100 1013.8
20260507061550 33 298 0.0 0.0 0.00 0.00 0.00 100 1014.0
20260507060107 32 298 0.0 0.0 0.00 0.00 0.00 100 1014.0
20260507054547 32 298 0.0 0.0 0.00 0.00 0.00 100 1014.2
20260507053019 32 298 0.0 0.0 0.00 0.00 0.00 100 1014.2
20260507051515 33 298 0.0 0.0 0.00 0.00 0.00 100 1014.1
20260507050059 33 298 0.0 0.0 0.00 0.00 0.00 100 1014.2
20260507044558 34 298 0.0 0.0 0.00 0.00 0.00 100 1014.1
20260507043052 34 298 0.0 0.0 0.00 0.00 0.00 100 1014.1
20260507041547 35 298 0.0 0.0 0.00 0.00 0.00 100 1014.3
20260507040041 35 298 0.0 0.0 0.00 0.00 0.00 100 1014.2
20260507034538 35 298 0.0 0.0 0.00 0.00 0.00 100 1014.3
20260507033034 35 298 0.0 0.0 0.00 0.00 0.00 100 1014.4
20260507031528 34 298 0.0 0.0 0.00 0.00 0.00 100 1014.5
20260507030021 34 298 0.0 0.0 0.00 0.00 0.00 100 1014.5
20260507024513 34 298 0.0 0.0 0.00 0.00 0.00 100 1014.4
20260507023003 36 298 0.0 0.0 0.00 0.00 0.00 11 1014.5
20260507021558 39 286 0.0 0.0 0.00 0.00 0.00 100 1014.4
20260507020115 38 286 0.0 0.0 0.00 0.00 0.00 100 1014.3
20260507014557 39 286 0.0 0.0 0.00 0.00 0.00 100 1014.2
20260507013045 38 286 0.0 0.0 0.00 0.00 0.00 100 1014.1
20260507011542 38 282 0.0 0.0 0.00 0.00 0.00 8 1014.1
20260507010034 38 283 0.0 0.0 0.00 0.00 0.00 17 1013.9
20260507004521 38 281 0.0 4.0 0.00 0.00 0.00 27 1013.9
20260507003016 39 246 0.0 0.0 0.00 0.00 0.00 47 1013.7
20260507001516 39 161 0.0 4.0 0.00 0.00 0.00 53 1013.8
20260507000008 39 229 0.0 1.0 0.00 0.00 0.00 54 1013.5
20260506234503 39 211 0.0 5.0 0.00 0.00 0.00 54 1013.7
20260506233100 40 234 0.0 6.0 0.00 0.00 0.00 54 1013.6
20260506233000 40 232 0.0 6.0 0.00 0.00 0.00 54 1013.5
20260506231609 40 175 2.0 7.0 0.00 0.00 0.00 54 1013.6
20260506230053 40 242 0.0 5.0 0.00 0.00 0.00 54 1013.6
20260506224538 40 235 1.0 7.0 0.00 0.00 0.00 55 1013.8
20260506223028 40 227 0.0 7.0 0.00 0.00 0.00 55 1013.8
20260506221526 40 221 0.0 6.0 0.00 0.00 0.00 55 1013.7
20260506220028 41 232 1.0 10.0 0.00 0.00 0.00 54 1013.7
20260506214516 41 247 1.0 7.0 0.00 0.00 0.00 53 1013.6
20260506213011 41 244 2.0 10.0 0.00 0.00 0.00 53 1013.5
20260506211508 41 258 2.0 7.0 0.00 0.00 0.00 53 1013.5
20260506210054 41 205 3.0 10.0 0.00 0.00 0.00 52 1013.6
20260506204542 41 225 2.0 9.0 0.00 0.00 0.00 52 1013.5
20260506203017 41 244 2.0 10.0 0.00 0.00 0.00 52 1013.7
20260506201526 41 251 3.0 9.0 0.00 0.00 0.00 52 1013.7
20260506200009 41 253 2.0 10.0 0.00 0.00 0.00 52 1013.8
20260506194507 41 236 3.0 10.0 0.00 0.00 0.00 52 1013.8
20260506193114 41 230 4.0 11.0 0.00 0.00 0.00 51 1013.8
20260506191611 41 262 4.0 10.0 0.00 0.00 0.00 50 1013.7
20260506190052 41 236 2.0 11.0 0.00 0.00 0.00 49 1013.9
20260506184559 41 254 4.0 10.0 0.00 0.00 0.00 48 1013.8
20260506183032 41 240 3.0 9.0 0.00 0.00 0.00 48 1013.7
20260506181525 41 250 4.0 12.0 0.00 0.00 0.00 48 1013.8
20260506180025 41 227 5.0 9.0 0.00 0.00 0.00 47 1013.9
20260506174524 42 253 4.0 10.0 0.00 0.00 0.00 45 1013.8
20260506173013 42 254 4.0 9.0 0.00 0.00 0.00 41 1014.0
20260506171513 41 250 3.0 10.0 0.00 0.00 0.00 39 1014.2
20260506170004 41 219 3.0 8.0 0.00 0.00 0.00 41 1014.2
20260506164600 41 257 4.0 8.0 0.00 0.00 0.00 31 1014.2